TimeCST,TemperatureF,Dew PointF,Humidity,Sea Level PressureIn,VisibilityMPH,Wind Direction,Wind SpeedMPH,Gust SpeedMPH,PrecipitationIn,Events,Conditions,WindDirDegrees,DateUTC
12:55 AM,48.6,45.9,90,30.01,10.0,Calm,Calm,-,N/A,,Clear,0,2012-11-07 06:55:00
1:55 AM,48.0,45.7,92,30.01,10.0,WNW,3.5,-,N/A,,Clear,300,2012-11-07 07:55:00
2:38 AM,48.2,46.4,93,30.01,10.0,NW,3.5,-,N/A,,Mostly Cloudy,310,2012-11-07 08:38:00
2:46 AM,48.2,46.4,93,30.01,10.0,NW,3.5,-,N/A,,Scattered Clouds,310,2012-11-07 08:46:00
2:55 AM,48.0,45.9,92,30.01,10.0,NW,4.6,-,N/A,,Scattered Clouds,310,2012-11-07 08:55:00
3:55 AM,47.3,45.5,93,30.01,10.0,NW,3.5,-,N/A,,Clear,310,2012-11-07 09:55:00
4:55 AM,46.9,45.3,94,30.02,10.0,NW,3.5,-,N/A,,Clear,310,2012-11-07 10:55:00
5:55 AM,46.6,45.0,94,30.02,10.0,WNW,3.5,-,N/A,,Clear,300,2012-11-07 11:55:00
6:55 AM,47.3,45.7,94,30.03,10.0,WNW,3.5,-,N/A,,Clear,300,2012-11-07 12:55:00
7:55 AM,52.2,46.8,82,30.04,10.0,Variable,6.9,-,N/A,,Clear,0,2012-11-07 13:55:00
8:55 AM,57.0,45.9,66,30.06,10.0,NW,12.7,-,N/A,,Clear,320,2012-11-07 14:55:00
9:20 AM,59.0,44.6,59,30.06,10.0,North,12.7,19.6,N/A,,Mostly Cloudy,350,2012-11-07 15:20:00
9:52 AM,59.0,46.4,63,30.05,10.0,NNW,10.4,-,N/A,,Scattered Clouds,330,2012-11-07 15:52:00
9:55 AM,59.7,45.7,60,30.05,10.0,NW,12.7,-,N/A,,Scattered Clouds,320,2012-11-07 15:55:00
10:55 AM,61.5,46.8,58,30.02,10.0,NNW,11.5,-,N/A,,Scattered Clouds,330,2012-11-07 16:55:00
11:02 AM,60.8,46.4,59,30.01,10.0,NW,12.7,18.4,N/A,,Mostly Cloudy,320,2012-11-07 17:02:00
11:19 AM,62.6,46.4,55,30.00,10.0,NNW,10.4,-,N/A,,Scattered Clouds,340,2012-11-07 17:19:00
11:33 AM,62.6,46.4,55,29.99,10.0,WNW,10.4,-,N/A,,Mostly Cloudy,300,2012-11-07 17:33:00
11:55 AM,64.6,46.0,51,29.98,10.0,NNW,12.7,19.6,N/A,,Mostly Cloudy,330,2012-11-07 17:55:00
12:02 PM,64.4,44.6,49,29.98,10.0,NNW,17.3,25.3,N/A,,Mostly Cloudy,330,2012-11-07 18:02:00
12:09 PM,64.4,44.6,49,29.97,10.0,NW,13.8,25.3,N/A,,Mostly Cloudy,320,2012-11-07 18:09:00
12:12 PM,64.4,44.6,49,29.97,10.0,NNW,11.5,25.3,N/A,,Mostly Cloudy,330,2012-11-07 18:12:00
12:21 PM,64.4,44.6,49,29.97,10.0,NW,9.2,18.4,N/A,,Mostly Cloudy,320,2012-11-07 18:21:00
12:25 PM,64.4,44.6,49,29.96,10.0,North,13.8,20.7,N/A,,Mostly Cloudy,350,2012-11-07 18:25:00
12:55 PM,62.8,42.1,47,29.96,10.0,NW,13.8,23.0,N/A,,Scattered Clouds,320,2012-11-07 18:55:00
1:55 PM,64.2,44.2,48,29.94,10.0,North,10.4,-,N/A,,Scattered Clouds,350,2012-11-07 19:55:00
2:55 PM,64.4,42.4,45,29.94,10.0,NW,11.5,-,N/A,,Partly Cloudy,310,2012-11-07 20:55:00
3:55 PM,63.1,41.2,45,29.96,10.0,NNW,15.0,-,N/A,,Clear,330,2012-11-07 21:55:00
4:55 PM,60.1,42.4,52,29.98,10.0,NW,6.9,-,N/A,,Clear,320,2012-11-07 22:55:00
5:55 PM,57.9,42.1,56,30.01,10.0,NW,5.8,-,N/A,,Mostly Cloudy,310,2012-11-07 23:55:00
6:55 PM,57.0,42.6,59,30.03,10.0,NW,4.6,-,N/A,,Overcast,310,2012-11-08 00:55:00
7:55 PM,56.7,43.0,60,30.06,10.0,North,6.9,-,N/A,,Overcast,350,2012-11-08 01:55:00
8:55 PM,52.9,42.8,69,30.09,10.0,North,9.2,-,N/A,,Overcast,360,2012-11-08 02:55:00
9:55 PM,51.1,40.1,66,30.10,10.0,North,10.4,-,N/A,,Clear,360,2012-11-08 03:55:00
10:55 PM,49.1,39.4,69,30.11,10.0,North,9.2,-,N/A,,Clear,10,2012-11-08 04:55:00
11:55 PM,46.4,38.7,74,30.12,10.0,North,8.1,-,N/A,,Clear,360,2012-11-08 05:55:00